Flag for Germany Weather past 2 weeks in Bitterfeld-Wolfen, Saxony-Anhalt, Germany

37 °F

Mostly cloudy.

Feels Like: 29 °F
Forecast: 31 / 41 °F
Wind: 13 mph from Southwest

Location: Leipzig-Schkeuditz

Current Time: Nov 25, 2015 at 11:34:58 PM

Latest Report: Nov 25, 2015 at 10:20 PM

Visibility: N/A

Pressure: 29.71 "Hg

Humidity: 87%

Dew point: 34 °F

Location of Bitterfeld-WolfenLocation

Historic Weather in Bitterfeld-Wolfen — Graph


Bitterfeld-Wolfen temperature yesterday

Maximum temperature yesterday: 39 °F (at 1:20 PM)
Minimum temperature yesterday: 28 °F (at 12:50 AM)
Average temperature yesterday: 34 °F

Past Weeks' High & Low Weather Summary

High61 °F (Nov 11, 1:50 PM)100% (Nov 11, 1:50 AM)30.30 "Hg (Nov 11, 1:50 AM)
Low28 °F (Nov 23, 10:20 PM)55% (Nov 18, 1:20 PM)29.36 "Hg (Nov 21, 12:20 PM)
Average46 °F86%29.89 "Hg
* Reported Nov 10 9:20 PM — Nov 25 9:50 PM, Bitterfeld-Wolfen, Weather by CustomWeather, © 2015

Note: Actual official high and low records may vary slightly from our data, if they occured in-between our weather recording intervals... More about our weather records


Bitterfeld-Wolfen weather history for previous 24 hours

Time TempWeatherWind HumidityBarometerVisibility
9:50 PM
Wed, Nov 25
36 °FMostly cloudy.10 mph93%29.71 "HgN/A
9:20 PM37 °FPassing clouds.10 mph87%29.71 "HgN/A
8:50 PM37 °FOvercast.9 mph93%29.68 "HgN/A
8:20 PM37 °FPassing clouds.8 mph93%29.68 "HgN/A
7:50 PM37 °FPassing clouds.8 mph93%29.68 "HgN/A
7:20 PM37 °FPartly cloudy.10 mph93%29.68 "HgN/A
6:50 PM37 °FLight rain. Passing clouds.10 mph93%29.68 "HgN/A
6:20 PM37 °FLight rain. Passing clouds.13 mph93%29.65 "HgN/A
5:50 PM39 °FLight rain. Passing clouds.10 mph87%29.65 "HgN/A
5:20 PM39 °FLight rain. Passing clouds.10 mph87%29.65 "HgN/A
4:50 PM39 °FLight rain. Passing clouds.10 mph87%29.65 "HgN/A
4:20 PM39 °FLight rain. Passing clouds.10 mph87%29.65 "HgN/A
3:50 PM39 °FLight rain. Partly sunny.12 mph81%29.65 "HgN/A
3:20 PM39 °FPartly sunny.8 mph81%29.65 "HgN/A
2:50 PM41 °FBroken clouds.12 mph76%29.65 "HgN/A
2:20 PM41 °FPartly sunny.12 mph76%29.65 "HgN/A
1:50 PM41 °FPartly sunny.12 mph76%29.65 "HgN/A
1:20 PM39 °FLight rain. Partly sunny.13 mph81%29.65 "HgN/A
12:50 PM39 °FLight rain. Partly sunny.12 mph81%29.68 "HgN/A
12:20 PM39 °FLight rain. Partly sunny.13 mph81%29.68 "HgN/A
11:50 AM39 °FPartly sunny.14 mph75%29.68 "HgN/A
11:20 AM39 °FPartly sunny.12 mph75%29.68 "HgN/A
10:50 AM39 °FPartly sunny.14 mph75%29.68 "HgN/A
10:20 AM37 °FBroken clouds.13 mph75%29.71 "HgN/A
9:50 AM37 °FBroken clouds.10 mph81%29.71 "HgN/A
9:20 AM36 °FBroken clouds.15 mph81%29.71 "HgN/A
8:50 AM36 °FBroken clouds.13 mph81%29.71 "HgN/A
8:20 AM36 °FBroken clouds.10 mph81%29.71 "HgN/A
7:50 AM36 °FBroken clouds.12 mph81%29.71 "HgN/A
7:20 AM36 °FPassing clouds.9 mph81%29.68 "HgN/A
6:50 AM36 °FOvercast.10 mph81%29.71 "HgN/A
6:20 AM36 °FOvercast.12 mph81%29.71 "HgN/A
5:50 AM36 °FOvercast.10 mph81%29.71 "HgN/A
5:20 AM36 °FPassing clouds.12 mph81%29.71 "HgN/A
4:20 AM36 °FPassing clouds.12 mph81%29.74 "HgN/A
3:50 AM36 °FPassing clouds.12 mph81%29.74 "HgN/A
3:20 AM36 °FPassing clouds.12 mph81%29.74 "HgN/A
2:50 AM36 °FPassing clouds.13 mph81%29.77 "HgN/A
2:20 AM36 °FPartly cloudy.14 mph81%29.77 "HgN/A
12:50 AM36 °FPartly cloudy.15 mph81%29.80 "HgN/A
12:20 AM36 °FPartly cloudy.15 mph75%29.83 "HgN/A
11:50 PM
Tue, Nov 24
36 °FPartly cloudy.16 mph81%29.86 "HgN/A
11:20 PM36 °FPartly cloudy.15 mph81%29.86 "HgN/A
Weather by CustomWeather, © 2015

See weather overviewHow to use our weather pages